When you browse on this site, cookies collect data to enhance your experience and personalize the content and advertising you see.
Visit our Privacy Policy to learn more. By continuing to use the site, you agree to this use of cookies and data.
  • In Slovakia
  • List of Countries
  • For 7 days
  • Water Temperature
  • Satellite Maps
  • Weather Map
  • Weather Widgets
  • user-avatar
    Login

    Hourly Weather Mauritius

    Today, 24 February, Sunday

    Time Temperature Precipitation Wind Pressure Humidity
    00:00 +26°C° 0 mm 2 mps 722 mmHg 80%
    01:00 +26°C° 0 mm 2 mps 721 mmHg 81%
    02:00 +26°C° 0 mm 2 mps 721 mmHg 81%
    03:00 +26°C° 0 mm 2 mps 721 mmHg 81%
    04:00 +26°C° 0 mm 2 mps 721 mmHg 81%
    05:00 +26°C° 0 mm 2 mps 721 mmHg 81%
    06:00 +26°C° 0 mm 2 mps 721 mmHg 80%
    07:00 +26°C° 0 mm 2 mps 721 mmHg 80%
    08:00 +27°C° 0 mm 2 mps 721 mmHg 77%
    09:00 +28°C° 0 mm 3 mps 721 mmHg 73%
    10:00 +29°C° 0 mm 3 mps 722 mmHg 69%
    11:00 +29°C° 0.3 mm 3 mps 722 mmHg 68%
    12:00 +30°C° 0.3 mm 3 mps 721 mmHg 66%
    13:00 +30°C° 0.3 mm 3 mps 721 mmHg 64%
    14:00 +30°C° 1.2 mm 3 mps 721 mmHg 66%
    15:00 +30°C° 1.2 mm 3 mps 721 mmHg 67%
    16:00 +29°C° 1.2 mm 3 mps 721 mmHg 68%
    17:00 +29°C° 0.8 mm 3 mps 721 mmHg 72%
    18:00 +28°C° 0.8 mm 3 mps 721 mmHg 76%
    19:00 +27°C° 0.8 mm 4 mps 721 mmHg 80%
    20:00 +27°C° 0.3 mm 4 mps 721 mmHg 80%
    21:00 +27°C° 0.3 mm 4 mps 722 mmHg 81%
    22:00 +27°C° 0.3 mm 4 mps 722 mmHg 81%
    23:00 +26°C° 0 mm 3 mps 722 mmHg 81%

    Tomorrow, 25 February, Monday

    Time Temperature Precipitation Wind Pressure Humidity
    00:00 +26°C° 0 mm 3 mps 722 mmHg 81%
    01:00 +26°C° 0 mm 3 mps 722 mmHg 81%
    02:00 +26°C° 0 mm 3 mps 721 mmHg 82%
    03:00 +26°C° 0 mm 3 mps 721 mmHg 82%
    04:00 +26°C° 0 mm 3 mps 721 mmHg 82%
    05:00 +26°C° 0 mm 4 mps 721 mmHg 82%
    06:00 +26°C° 0 mm 4 mps 721 mmHg 82%
    07:00 +27°C° 0 mm 4 mps 721 mmHg 81%
    08:00 +27°C° 0 mm 4 mps 721 mmHg 77%
    09:00 +28°C° 0 mm 5 mps 722 mmHg 72%
    10:00 +29°C° 0 mm 5 mps 722 mmHg 67%
    11:00 +30°C° 0 mm 5 mps 722 mmHg 65%
    12:00 +30°C° 0 mm 5 mps 722 mmHg 63%
    13:00 +32°C° 0 mm 5 mps 722 mmHg 62%
    14:00 +30°C° 0 mm 5 mps 721 mmHg 63%
    15:00 +30°C° 0 mm 5 mps 721 mmHg 64%
    16:00 +30°C° 0 mm 5 mps 721 mmHg 65%
    17:00 +29°C° 0 mm 5 mps 721 mmHg 68%
    18:00 +28°C° 0 mm 5 mps 721 mmHg 72%
    19:00 +27°C° 0 mm 5 mps 721 mmHg 76%
    20:00 +27°C° 0 mm 5 mps 721 mmHg 77%
    21:00 +27°C° 0 mm 5 mps 722 mmHg 78%
    22:00 +27°C° 0 mm 4 mps 722 mmHg 79%
    23:00 +27°C° 0 mm 4 mps 722 mmHg 80%

    Day after tomorrow, 26 February, Tuesday

    Time Temperature Precipitation Wind Pressure Humidity
    00:00 +27°C° 0 mm 4 mps 722 mmHg 80%
    01:00 +27°C° 0 mm 4 mps 722 mmHg 81%
    02:00 +27°C° 0 mm 4 mps 721 mmHg 81%
    03:00 +26°C° 0 mm 4 mps 721 mmHg 82%
    04:00 +26°C° 0 mm 4 mps 721 mmHg 82%
    05:00 +26°C° 0 mm 4 mps 721 mmHg 82%
    06:00 +27°C° 0 mm 4 mps 721 mmHg 81%
    07:00 +27°C° 0 mm 3 mps 721 mmHg 80%
    08:00 +28°C° 0 mm 3 mps 722 mmHg 76%
    09:00 +29°C° 0 mm 3 mps 722 mmHg 71%
    10:00 +30°C° 0 mm 3 mps 722 mmHg 67%
    11:00 +30°C° 0 mm 3 mps 722 mmHg 64%
    12:00 +31°C° 0 mm 3 mps 722 mmHg 62%
    13:00 +31°C° 0 mm 3 mps 721 mmHg 60%
    14:00 +31°C° 0 mm 3 mps 721 mmHg 61%
    15:00 +31°C° 0 mm 3 mps 721 mmHg 63%
    16:00 +31°C° 0 mm 3 mps 720 mmHg 64%
    17:00 +29°C° 1.1 mm 3 mps 721 mmHg 70%
    18:00 +28°C° 1.1 mm 3 mps 721 mmHg 76%
    19:00 +27°C° 1.1 mm 3 mps 721 mmHg 82%
    20:00 +27°C° 1.5 mm 3 mps 722 mmHg 83%
    21:00 +27°C° 1.5 mm 3 mps 722 mmHg 84%
    22:00 +27°C° 1.5 mm 3 mps 723 mmHg 84%
    23:00 +27°C° 0.6 mm 3 mps 722 mmHg 85%

    27 February, Wednesday

    Time Temperature Precipitation Wind Pressure Humidity
    00:00 +27°C° 0.6 mm 3 mps 722 mmHg 85%
    01:00 +27°C° 0.6 mm 4 mps 722 mmHg 85%
    02:00 +27°C° 1.3 mm 4 mps 722 mmHg 85%
    03:00 +27°C° 1.3 mm 4 mps 721 mmHg 85%
    04:00 +27°C° 1.3 mm 4 mps 721 mmHg 84%
    05:00 +27°C° 0 mm 4 mps 721 mmHg 84%
    06:00 +27°C° 0 mm 4 mps 722 mmHg 84%
    07:00 +27°C° 0 mm 4 mps 722 mmHg 84%
    08:00 +28°C° 0.1 mm 5 mps 723 mmHg 79%
    09:00 +29°C° 0.1 mm 5 mps 723 mmHg 75%
    10:00 +30°C° 0.1 mm 6 mps 723 mmHg 71%
    11:00 +30°C° 0 mm 6 mps 723 mmHg 68%
    12:00 +32°C° 0 mm 6 mps 723 mmHg 66%
    13:00 +32°C° 0 mm 7 mps 723 mmHg 63%
    14:00 +30°C° 0 mm 6 mps 722 mmHg 66%
    15:00 +30°C° 0 mm 6 mps 722 mmHg 69%
    16:00 +29°C° 0 mm 6 mps 722 mmHg 72%
    17:00 +29°C° 0 mm 6 mps 722 mmHg 75%
    18:00 +28°C° 0 mm 5 mps 722 mmHg 79%
    19:00 +28°C° 0 mm 5 mps 722 mmHg 82%
    20:00 +28°C° 0 mm 5 mps 723 mmHg 82%
    21:00 +28°C° 0 mm 5 mps 723 mmHg 81%
    22:00 +28°C° 0 mm 6 mps 724 mmHg 81%
    23:00 +27°C° 0 mm 5 mps 723 mmHg 82%

    28 February, Thursday

    Time Temperature Precipitation Wind Pressure Humidity
    00:00 +27°C° 0 mm 5 mps 723 mmHg 82%
    01:00 +27°C° 0 mm 5 mps 723 mmHg 83%
    02:00 +27°C° 0 mm 5 mps 722 mmHg 83%
    03:00 +27°C° 0 mm 5 mps 722 mmHg 83%
    04:00 +27°C° 0 mm 5 mps 722 mmHg 83%
    05:00 +27°C° 0 mm 4 mps 722 mmHg 82%
    06:00 +27°C° 0 mm 4 mps 722 mmHg 82%
    07:00 +27°C° 0 mm 4 mps 723 mmHg 82%
    08:00 +28°C° 0 mm 4 mps 723 mmHg 78%
    09:00 +29°C° 0 mm 5 mps 723 mmHg 74%
    10:00 +30°C° 0 mm 5 mps 724 mmHg 69%
    11:00 +30°C° 0.2 mm 5 mps 723 mmHg 69%
    12:00 +30°C° 0.2 mm 5 mps 723 mmHg 68%
    13:00 +32°C° 0.2 mm 5 mps 722 mmHg 68%
    14:00 +30°C° 0.7 mm 5 mps 722 mmHg 68%
    15:00 +30°C° 0.7 mm 5 mps 722 mmHg 69%
    16:00 +30°C° 0.7 mm 5 mps 721 mmHg 70%
    17:00 +29°C° 0 mm 5 mps 722 mmHg 73%
    18:00 +28°C° 0 mm 4 mps 722 mmHg 76%
    19:00 +27°C° 0 mm 4 mps 722 mmHg 79%
    20:00 +27°C° 0 mm 4 mps 723 mmHg 80%
    21:00 +27°C° 0 mm 4 mps 723 mmHg 81%
    22:00 +27°C° 0 mm 4 mps 723 mmHg 82%
    23:00 +27°C° 0 mm 4 mps 723 mmHg 82%

    1 March, Friday

    Time Temperature Precipitation Wind Pressure Humidity
    00:00 +27°C° 0 mm 4 mps 723 mmHg 82%
    01:00 +27°C° 0 mm 4 mps 722 mmHg 83%
    02:00 +27°C° 0 mm 4 mps 722 mmHg 83%
    03:00 +27°C° 0 mm 4 mps 722 mmHg 84%
    04:00 +26°C° 0 mm 4 mps 722 mmHg 84%
    05:00 +27°C° 0 mm 4 mps 722 mmHg 84%
    06:00 +27°C° 0 mm 4 mps 722 mmHg 84%
    07:00 +27°C° 0 mm 4 mps 723 mmHg 84%
    08:00 +28°C° 0.1 mm 4 mps 723 mmHg 79%
    09:00 +29°C° 0.1 mm 5 mps 723 mmHg 75%
    10:00 +30°C° 0.1 mm 5 mps 723 mmHg 71%
    11:00 +30°C° 0 mm 5 mps 723 mmHg 68%
    12:00 +32°C° 0 mm 5 mps 723 mmHg 66%
    13:00 +32°C° 0 mm 5 mps 722 mmHg 64%
    14:00 +32°C° 0 mm 5 mps 722 mmHg 66%
    15:00 +30°C° 0 mm 5 mps 722 mmHg 67%
    16:00 +30°C° 0 mm 5 mps 721 mmHg 69%
    17:00 +29°C° 0.3 mm 5 mps 722 mmHg 74%
    18:00 +28°C° 0.3 mm 5 mps 722 mmHg 78%
    19:00 +27°C° 0.3 mm 5 mps 722 mmHg 83%
    20:00 +27°C° 0.1 mm 5 mps 722 mmHg 83%
    21:00 +27°C° 0.1 mm 5 mps 722 mmHg 84%
    22:00 +27°C° 0.1 mm 5 mps 723 mmHg 84%
    23:00 +27°C° 0 mm 5 mps 722 mmHg 84%
    Show more